Pottstown, PA

4:16 AM EDT on May 21, 2018 (GMT -0400)
Pottstown Limerick

Weather History for KPTW - February, 2013

Change the Weather History Date:

Sunday, February 24, 2013

  Actual Average (KRDG) Record (KRDG)
Temperature  
Mean Temperature 37 °F -  
Max Temperature 44 °F 42 °F 77 °F (1985)
Min Temperature 30 °F 25 °F -3 °F (2015)
Degree Days  
Heating Degree Days 28    
Moisture  
Dew Point 30 °F    
Average Humidity 75    
Maximum Humidity 100    
Minimum Humidity 53    
Precipitation  
Precipitation 0.00 in - - ()
Sea Level Pressure  
Sea Level Pressure 29.88 in    
Wind  
Wind Speed 6 mph (NW)    
Max Wind Speed 16 mph    
Max Gust Speed 29 mph    
Visibility 10 miles    
Events      
Averages and records for this station are not official NWS values.
T = Trace of Precipitation, MM = Missing Value Source: NWS Daily Summary

Daily Weather History Graph

Daily Weather History Graph

Search for Another Location

Airport or City:

Astronomy

Feb. 24, 2013 Rise Set
Actual Time 6:42 AM EST 5:48 PM EST
Civil Twilight 6:15 AM EST 6:16 PM EST
Nautical Twilight 5:43 AM EST 6:47 PM EST
Astronomical Twilight 5:12 AM EST 7:19 PM EST
Moon 4:57 PM EST (2/24) 5:38 AM EST (2/24)
Length of Visible Light 12h 00m
Length of Day
11h 05m
Waxing Gibbous, 99% of the Moon is Illuminated
Feb 24
Waxing Gibbous
Feb 25
Full
Mar 4
Last Quarter
Mar 11
New
Mar 19
First Quarter

Hourly Weather History & Observations

Time (EST) Temp. Windchill Dew Point Humidity Pressure Visibility Wind Dir Wind Speed Gust Speed Precip Events Conditions
12:54 AM 39.0 °F 36.8 °F 37.9 °F 96% 29.83 in 10.0 mi NNW 3.5 mph - N/A   Overcast
1:54 AM 39.0 °F 34.0 °F 37.0 °F 93% 29.82 in 10.0 mi North 6.9 mph - N/A   Overcast
2:03 AM 39.2 °F 37.0 °F 37.4 °F 93% 29.83 in 10.0 mi NNW 3.5 mph - N/A   Overcast
2:54 AM 37.9 °F 35.5 °F 37.0 °F 97% 29.83 in 10.0 mi NW 3.5 mph - N/A   Overcast
3:54 AM 37.9 °F 35.5 °F 36.0 °F 93% 29.80 in 10.0 mi North 3.5 mph - N/A   Overcast
4:54 AM 37.9 °F 35.5 °F 37.0 °F 97% 29.79 in 10.0 mi NNE 3.5 mph - N/A   Overcast
5:54 AM 37.0 °F - 36.0 °F 96% 29.81 in 10.0 mi Calm Calm - N/A   Mostly Cloudy
6:05 AM 37.4 °F - 35.6 °F 93% 29.81 in 10.0 mi Calm Calm - N/A   Mostly Cloudy
6:54 AM 35.1 °F 32.2 °F 34.0 °F 96% 29.81 in 4.0 mi WNW 3.5 mph - N/A   Scattered Clouds
7:40 AM 37.4 °F 34.9 °F 37.4 °F 100% 29.82 in 8.0 mi West 3.5 mph - N/A   Mostly Cloudy
7:54 AM 39.0 °F 35.7 °F 37.9 °F 96% 29.82 in 7.0 mi West 4.6 mph - N/A   Mostly Cloudy
8:12 AM 39.2 °F 34.2 °F 37.4 °F 93% 29.83 in 8.0 mi WNW 6.9 mph - N/A   Scattered Clouds
8:54 AM 42.1 °F 36.6 °F 35.1 °F 76% 29.83 in 10.0 mi NW 9.2 mph - N/A   Clear
9:54 AM 44.1 °F 38.1 °F 33.1 °F 65% 29.83 in 10.0 mi NW 11.5 mph 18.4 mph N/A   Clear
10:54 AM 44.1 °F 37.1 °F 30.9 °F 60% 29.85 in 10.0 mi WNW 15.0 mph 21.9 mph N/A   Overcast
11:54 AM 43.0 °F 37.7 °F 30.9 °F 62% 29.85 in 10.0 mi WNW 9.2 mph 19.6 mph N/A   Mostly Cloudy
12:54 PM 43.0 °F 36.8 °F 28.9 °F 58% 29.83 in 10.0 mi WNW 11.5 mph 21.9 mph N/A   Overcast
1:54 PM 43.0 °F 35.4 °F 27.0 °F 53% 29.83 in 10.0 mi WNW 16.1 mph 24.2 mph N/A   Overcast
2:54 PM 39.9 °F 31.8 °F 25.0 °F 55% 29.86 in 10.0 mi WNW 15.0 mph 28.8 mph N/A   Overcast
3:54 PM 39.0 °F 31.0 °F 24.1 °F 55% 29.88 in 10.0 mi WNW 13.8 mph 23.0 mph N/A   Overcast
4:54 PM 37.9 °F 29.2 °F 23.0 °F 55% 29.91 in 10.0 mi WNW 15.0 mph 24.2 mph N/A   Overcast
5:54 PM 36.0 °F 28.5 °F 21.0 °F 55% 29.94 in 10.0 mi WNW 10.4 mph 21.9 mph N/A   Partly Cloudy
6:54 PM 34.0 °F 28.0 °F 19.9 °F 56% 29.97 in 10.0 mi WNW 6.9 mph - N/A   Clear
7:54 PM 33.1 °F 26.9 °F 19.9 °F 59% 30.00 in 10.0 mi WNW 6.9 mph - N/A   Clear
8:54 PM 33.1 °F 25.5 °F 19.0 °F 56% 30.02 in 10.0 mi NW 9.2 mph - N/A   Clear
9:54 PM 30.9 °F 26.2 °F 19.0 °F 61% 30.04 in 10.0 mi West 4.6 mph - N/A   Clear
10:54 PM 30.0 °F 24.1 °F 19.0 °F 64% 30.04 in 10.0 mi WNW 5.8 mph - N/A   Clear
11:54 PM 30.0 °F 24.1 °F 19.9 °F 66% 30.05 in 10.0 mi NW 5.8 mph - N/A   Mostly Cloudy